Location: Unspecified
(0.0000°N, 0.0000°E)
Time: 13:52:27
(UTC+00:00)

Altair - Pass Details

Date: 15 March 2026
Orbit: 1502 x 1682 km, 47.2° (Epoch: 18 April)

Event Time Altitude Azimuth Distance (km) Brightness Sun altitude
Rises 19:57:44 0° 246° (WSW) 4,847 11.2 -27.2°
Reaches altitude 10° 20:01:35 10° 258° (WSW) 3,830 10.5 -28.2°
Maximum altitude 20:09:16 27° 311° (NW) 2,690 9.1 -30.1°
Drops below altitude 10° 20:16:46 10° 5° (N) 3,708 9.4 -32.0°
Enters shadow 20:19:54 - 16° (NNE) 4,509 9.8 -32.7°
